| time (UTC) | temp C | wind direction | speed KPH | gust KPH | rain 1hr cm | rain 24hr cm | rain mn cm | humidity % | barometer mb |
| 20260906215355 | 22 | 69 | 6.4 | 14.5 | 0.00 | 0.00 | 0.00 | 63 | 1019.0 |
| 20260906214831 | 22 | 96 | 3.2 | 9.7 | 0.00 | 0.00 | 0.00 | 62 | 1019.1 |
| 20260906214523 | 22 | 111 | 3.2 | 11.3 | 0.00 | 0.00 | 0.00 | 62 | 1018.2 |
| 20260906214346 | 22 | 39 | 3.2 | 11.3 | 0.00 | 0.00 | 0.00 | 63 | 1019.0 |
| 20260906213845 | 22 | 96 | 6.4 | 16.1 | 0.00 | 0.00 | 0.00 | 63 | 1019.0 |
| 20260906213331 | 22 | 23 | 6.4 | 16.1 | 0.00 | 0.00 | 0.00 | 62 | 1019.0 |
| 20260906213047 | 22 | 34 | 3.2 | 16.1 | 0.00 | 0.00 | 0.00 | 61 | 1018.2 |
| 20260906212848 | 22 | 48 | 6.4 | 16.1 | 0.00 | 0.00 | 0.00 | 61 | 1019.1 |
| 20260906212341 | 22 | 112 | 6.4 | 14.5 | 0.00 | 0.00 | 0.00 | 61 | 1019.1 |
| 20260906211848 | 22 | 72 | 6.4 | 17.7 | 0.00 | 0.00 | 0.00 | 62 | 1019.1 |
| 20260906211521 | 22 | 43 | 4.8 | 17.7 | 0.00 | 0.00 | 0.00 | 62 | 1018.2 |
| 20260906211345 | 22 | 93 | 6.4 | 17.7 | 0.00 | 0.00 | 0.00 | 61 | 1019.1 |
| 20260906210843 | 23 | 92 | 3.2 | 12.9 | 0.00 | 0.00 | 0.00 | 63 | 1019.1 |
| 20260906210340 | 23 | 102 | 4.8 | 9.7 | 0.00 | 0.00 | 0.00 | 61 | 1019.1 |
| 20260906210039 | 22 | 52 | 3.2 | 9.7 | 0.00 | 0.00 | 0.00 | 61 | 1018.3 |
| 20260906205902 | 23 | 58 | 3.2 | 11.3 | 0.00 | 0.00 | 0.00 | 60 | 1019.2 |
| 20260906205357 | 23 | 109 | 4.8 | 14.5 | 0.00 | 0.00 | 0.00 | 63 | 1019.2 |
| 20260906204829 | 23 | 43 | 3.2 | 14.5 | 0.00 | 0.00 | 0.00 | 64 | 1019.2 |
| 20260906204523 | 23 | 106 | 3.2 | 14.5 | 0.00 | 0.00 | 0.00 | 65 | 1018.3 |
| 20260906204345 | 23 | 37 | 4.8 | 14.5 | 0.00 | 0.00 | 0.00 | 64 | 1019.2 |
| 20260906203914 | 23 | 59 | 6.4 | 19.3 | 0.00 | 0.00 | 0.00 | 64 | 1019.2 |
| 20260906203410 | 23 | 335 | 3.2 | 19.3 | 0.00 | 0.00 | 0.00 | 64 | 1019.1 |
| 20260906203041 | 23 | 50 | 3.2 | 14.5 | 0.00 | 0.00 | 0.00 | 63 | 1018.2 |
| 20260906202845 | 23 | 77 | 1.6 | 14.5 | 0.00 | 0.00 | 0.00 | 64 | 1019.1 |
| 20260906202342 | 22 | 67 | 6.4 | 14.5 | 0.00 | 0.00 | 0.00 | 66 | 1019.1 |
| 20260906201837 | 22 | 64 | 8.0 | 14.5 | 0.00 | 0.00 | 0.00 | 67 | 1019.1 |
| 20260906201609 | 22 | 345 | 4.8 | 16.1 | 0.00 | 0.00 | 0.00 | 66 | 1018.1 |
| 20260906201333 | 23 | 52 | 6.4 | 16.1 | 0.00 | 0.00 | 0.00 | 65 | 1019.0 |
| 20260906200846 | 23 | 31 | 3.2 | 19.3 | 0.00 | 0.00 | 0.00 | 67 | 1019.1 |
| 20260906200331 | 22 | 33 | 4.8 | 24.1 | 0.00 | 0.00 | 0.00 | 68 | 1019.1 |
| 20260906200025 | 22 | 50 | 8.0 | 24.1 | 0.00 | 0.00 | 0.00 | 66 | 1018.3 |
| 20260906195843 | 22 | 63 | 9.7 | 24.1 | 0.00 | 0.00 | 0.00 | 66 | 1019.1 |
| 20260906195334 | 23 | 67 | 6.4 | 17.7 | 0.00 | 0.00 | 0.00 | 64 | 1019.0 |
| 20260906194846 | 23 | 53 | 9.7 | 17.7 | 0.00 | 0.00 | 0.00 | 66 | 1019.0 |
| 20260906194531 | 22 | 45 | 8.0 | 19.3 | 0.00 | 0.00 | 0.00 | 65 | 1018.0 |
| 20260906194342 | 23 | 110 | 6.4 | 22.5 | 0.00 | 0.00 | 0.00 | 66 | 1019.1 |
| 20260906193849 | 23 | 18 | 11.3 | 22.5 | 0.00 | 0.00 | 0.00 | 64 | 1019.0 |
| 20260906193344 | 24 | 350 | 6.4 | 17.7 | 0.00 | 0.00 | 0.00 | 65 | 1019.0 |
| 20260906193008 | 23 | 77 | 6.4 | 17.7 | 0.00 | 0.00 | 0.00 | 63 | 1018.0 |
| 20260906192841 | 23 | 23 | 8.0 | 19.3 | 0.00 | 0.00 | 0.00 | 64 | 1019.0 |
| 20260906192336 | 23 | 23 | 4.8 | 19.3 | 0.00 | 0.00 | 0.00 | 64 | 1019.0 |
| 20260906191832 | 23 | 42 | 4.8 | 14.5 | 0.00 | 0.00 | 0.00 | 65 | 1019.0 |
| 20260906191515 | 23 | 75 | 6.4 | 17.7 | 0.00 | 0.00 | 0.00 | 64 | 1018.0 |
| 20260906191346 | 23 | 125 | 4.8 | 17.7 | 0.00 | 0.00 | 0.00 | 64 | 1019.0 |
| 20260906190843 | 23 | 27 | 1.6 | 14.5 | 0.00 | 0.00 | 0.00 | 66 | 1019.0 |
| 20260906190355 | 23 | 75 | 3.2 | 17.7 | 0.00 | 0.00 | 0.00 | 66 | 1019.1 |
| 20260906190015 | 23 | 59 | 8.0 | 17.7 | 0.00 | 0.00 | 0.00 | 65 | 1018.1 |
| 20260906185849 | 23 | 9 | 8.0 | 17.7 | 0.00 | 0.00 | 0.00 | 64 | 1019.0 |
| 20260906185342 | 23 | 38 | 4.8 | 14.5 | 0.00 | 0.00 | 0.00 | 65 | 1019.0 |
| 20260906184838 | 23 | 23 | 3.2 | 17.7 | 0.00 | 0.00 | 0.00 | 65 | 1019.0 |
| 20260906184512 | 22 | 23 | 4.8 | 19.3 | 0.00 | 0.00 | 0.00 | 68 | 1018.0 |
| 20260906184336 | 22 | 40 | 3.2 | 19.3 | 0.00 | 0.00 | 0.00 | 69 | 1019.0 |
| 20260906183850 | 22 | 69 | 8.0 | 19.3 | 0.00 | 0.00 | 0.00 | 67 | 1019.0 |
| 20260906183348 | 22 | 5 | 3.2 | 9.7 | 0.00 | 0.00 | 0.00 | 67 | 1019.0 |
| 20260906183018 | 22 | 357 | 1.6 | 16.1 | 0.00 | 0.00 | 0.00 | 65 | 1018.2 |
| 20260906182843 | 23 | 49 | 1.6 | 16.1 | 0.00 | 0.00 | 0.00 | 66 | 1019.1 |
| 20260906182406 | 23 | 44 | 6.4 | 16.1 | 0.00 | 0.00 | 0.00 | 65 | 1019.1 |
| 20260906181856 | 22 | 125 | 3.2 | 16.1 | 0.00 | 0.00 | 0.00 | 67 | 1019.0 |
| 20260906181542 | 22 | 18 | 6.4 | 14.5 | 0.00 | 0.00 | 0.00 | 66 | 1018.1 |
| 20260906181351 | 23 | 37 | 3.2 | 14.5 | 0.00 | 0.00 | 0.00 | 66 | 1019.1 |
| 20260906180847 | 23 | 59 | 1.6 | 20.9 | 0.00 | 0.00 | 0.00 | 67 | 1019.1 |
| 20260906180344 | 23 | 32 | 4.8 | 20.9 | 0.00 | 0.00 | 0.00 | 67 | 1019.1 |
| 20260906180109 | 22 | 82 | 4.8 | 14.5 | 0.00 | 0.00 | 0.00 | 65 | 1018.1 |
| 20260906175859 | 23 | 42 | 6.4 | 17.7 | 0.00 | 0.00 | 0.00 | 66 | 1019.1 |
| 20260906175333 | 23 | 23 | 8.0 | 17.7 | 0.00 | 0.00 | 0.00 | 64 | 1019.0 |
| 20260906174849 | 23 | 45 | 4.8 | 17.7 | 0.00 | 0.00 | 0.00 | 63 | 1019.2 |
| 20260906174556 | 23 | 61 | 3.2 | 17.7 | 0.00 | 0.00 | 0.00 | 67 | 1018.2 |
| 20260906174507 | 22 | 27 | 3.2 | 17.7 | 0.00 | 0.00 | 0.00 | 66 | 1018.2 |
| 20260906174344 | 23 | 1 | 6.4 | 17.7 | 0.00 | 0.00 | 0.00 | 66 | 1019.1 |
| 20260906173835 | 23 | 18 | 6.4 | 16.1 | 0.00 | 0.00 | 0.00 | 66 | 1019.1 |
| 20260906173352 | 23 | 33 | 6.4 | 16.1 | 0.00 | 0.00 | 0.00 | 66 | 1019.1 |
| 20260906173003 | 22 | 46 | 4.8 | 20.9 | 0.00 | 0.00 | 0.00 | 66 | 1018.2 |
| 20260906172906 | 23 | 54 | 6.4 | 20.9 | 0.00 | 0.00 | 0.00 | 67 | 1019.1 |
| 20260906172339 | 23 | 60 | 9.7 | 20.9 | 0.00 | 0.00 | 0.00 | 66 | 1019.1 |
| 20260906171902 | 22 | 13 | 6.4 | 19.3 | 0.00 | 0.00 | 0.00 | 68 | 1019.1 |
| 20260906171536 | 22 | 23 | 6.4 | 19.3 | 0.00 | 0.00 | 0.00 | 67 | 1018.2 |
| 20260906171339 | 23 | 52 | 11.3 | 19.3 | 0.00 | 0.00 | 0.00 | 66 | 1019.2 |
| 20260906170902 | 23 | 54 | 8.0 | 16.1 | 0.00 | 0.00 | 0.00 | 65 | 1019.1 |
| 20260906170337 | 23 | 82 | 1.6 | 11.3 | 0.00 | 0.00 | 0.00 | 67 | 1019.2 |
| 20260906170100 | 22 | 50 | 1.6 | 17.7 | 0.00 | 0.00 | 0.00 | 69 | 1018.2 |
| 20260906165848 | 22 | 54 | 3.2 | 19.3 | 0.00 | 0.00 | 0.00 | 69 | 1019.1 |
| 20260906165403 | 22 | 23 | 9.7 | 19.3 | 0.00 | 0.00 | 0.00 | 68 | 1019.2 |
| 20260906164848 | 23 | 18 | 3.2 | 16.1 | 0.00 | 0.00 | 0.00 | 68 | 1019.2 |
| 20260906164533 | 22 | 69 | 3.2 | 17.7 | 0.00 | 0.00 | 0.00 | 69 | 1018.3 |
| 20260906164345 | 22 | 68 | 6.4 | 17.7 | 0.00 | 0.00 | 0.00 | 69 | 1019.2 |
| 20260906163841 | 22 | 34 | 4.8 | 17.7 | 0.00 | 0.00 | 0.00 | 71 | 1019.2 |
| 20260906163335 | 22 | 41 | 9.7 | 17.7 | 0.00 | 0.00 | 0.00 | 69 | 1019.2 |
| 20260906163037 | 23 | 90 | 4.8 | 17.7 | 0.00 | 0.00 | 0.00 | 67 | 1018.3 |
| 20260906162849 | 23 | 27 | 4.8 | 17.7 | 0.00 | 0.00 | 0.00 | 69 | 1019.3 |
| 20260906162342 | 23 | 44 | 6.4 | 17.7 | 0.00 | 0.00 | 0.00 | 68 | 1019.3 |
| 20260906161855 | 22 | 148 | 4.8 | 19.3 | 0.00 | 0.00 | 0.00 | 70 | 1019.3 |
| 20260906161553 | 22 | 42 | 4.8 | 19.3 | 0.00 | 0.00 | 0.00 | 70 | 1018.4 |
| 20260906161349 | 22 | 78 | 4.8 | 19.3 | 0.00 | 0.00 | 0.00 | 70 | 1019.3 |
| 20260906160845 | 22 | 35 | 6.4 | 19.3 | 0.00 | 0.00 | 0.00 | 71 | 1019.2 |
| 20260906160401 | 22 | 40 | 8.0 | 20.9 | 0.00 | 0.00 | 0.00 | 70 | 1019.3 |
| 20260906160014 | 22 | 87 | 4.8 | 19.3 | 0.00 | 0.00 | 0.00 | 71 | 1018.4 |
| 20260906155837 | 22 | 64 | 6.4 | 19.3 | 0.00 | 0.00 | 0.00 | 72 | 1019.3 |
| 20260906155334 | 22 | 119 | 9.7 | 19.3 | 0.00 | 0.00 | 0.00 | 72 | 1019.4 |
| 20260906154848 | 23 | 23 | 6.4 | 22.5 | 0.00 | 0.00 | 0.00 | 70 | 1019.4 |
| 20260906154520 | 22 | 47 | 6.4 | 22.5 | 0.00 | 0.00 | 0.00 | 70 | 1018.4 |
| 20260906154413 | 22 | 43 | 6.4 | 22.5 | 0.00 | 0.00 | 0.00 | 72 | 1019.3 |
| 20260906153828 | 22 | 227 | 6.4 | 16.1 | 0.00 | 0.00 | 0.00 | 74 | 1019.3 |
| 20260906153340 | 21 | 109 | 3.2 | 12.9 | 0.00 | 0.00 | 0.00 | 77 | 1019.2 |
| 20260906153016 | 21 | 8 | 3.2 | 16.1 | 0.00 | 0.00 | 0.00 | 75 | 1018.4 |
| 20260906152838 | 21 | 355 | 4.8 | 16.1 | 0.00 | 0.00 | 0.00 | 75 | 1019.3 |
| 20260906152335 | 22 | 30 | 8.0 | 16.1 | 0.00 | 0.00 | 0.00 | 73 | 1019.3 |
| 20260906151850 | 22 | 55 | 4.8 | 14.5 | 0.00 | 0.00 | 0.00 | 73 | 1019.2 |
| 20260906151512 | 21 | 9 | 1.6 | 14.5 | 0.00 | 0.00 | 0.00 | 76 | 1018.3 |
| 20260906151405 | 21 | 34 | 1.6 | 14.5 | 0.00 | 0.00 | 0.00 | 77 | 1019.3 |
| 20260906150841 | 21 | 36 | 4.8 | 14.5 | 0.00 | 0.00 | 0.00 | 77 | 1019.2 |
| 20260906150338 | 21 | 64 | 1.6 | 14.5 | 0.00 | 0.00 | 0.00 | 78 | 1019.2 |
| 20260906150004 | 21 | 344 | 0.0 | 16.1 | 0.00 | 0.00 | 0.00 | 80 | 1018.2 |
| 20260906145835 | 21 | 73 | 1.6 | 16.1 | 0.00 | 0.00 | 0.00 | 80 | 1019.1 |
| 20260906145352 | 20 | 81 | 4.8 | 16.1 | 0.00 | 0.00 | 0.00 | 79 | 1019.1 |
| 20260906144849 | 21 | 58 | 1.6 | 16.1 | 0.00 | 0.00 | 0.00 | 78 | 1019.1 |
| 20260906144510 | 21 | 106 | 3.2 | 16.1 | 0.00 | 0.00 | 0.00 | 77 | 1018.2 |
| 20260906144340 | 21 | 88 | 4.8 | 16.1 | 0.00 | 0.00 | 0.00 | 78 | 1019.1 |
| 20260906143836 | 21 | 113 | 4.8 | 14.5 | 0.00 | 0.00 | 0.00 | 79 | 1019.0 |
| 20260906143332 | 20 | 53 | 4.8 | 12.9 | 0.00 | 0.00 | 0.00 | 80 | 1019.0 |
| 20260906143019 | 20 | 96 | 3.2 | 12.9 | 0.00 | 0.00 | 0.00 | 80 | 1018.1 |
| 20260906142848 | 21 | 37 | 3.2 | 12.9 | 0.00 | 0.00 | 0.00 | 81 | 1019.1 |
| 20260906142402 | 20 | 49 | 3.2 | 16.1 | 0.00 | 0.00 | 0.00 | 82 | 1019.0 |
| 20260906141855 | 21 | 45 | 8.0 | 17.7 | 0.00 | 0.00 | 0.00 | 79 | 1019.0 |
| 20260906141538 | 21 | 38 | 8.0 | 19.3 | 0.00 | 0.00 | 0.00 | 79 | 1018.1 |
| 20260906141350 | 21 | 62 | 8.0 | 19.3 | 0.00 | 0.00 | 0.00 | 79 | 1019.0 |
| 20260906140845 | 21 | 96 | 3.2 | 20.9 | 0.00 | 0.00 | 0.00 | 80 | 1018.9 |
| 20260906140358 | 21 | 91 | 8.0 | 20.9 | 0.00 | 0.00 | 0.00 | 81 | 1018.9 |
| 20260906140029 | 20 | 69 | 4.8 | 16.1 | 0.00 | 0.00 | 0.00 | 82 | 1017.9 |
| 20260906135833 | 20 | 114 | 6.4 | 16.1 | 0.00 | 0.00 | 0.00 | 83 | 1018.9 |
| 20260906135349 | 20 | 63 | 8.0 | 16.1 | 0.00 | 0.00 | 0.00 | 83 | 1018.9 |
| 20260906134845 | 20 | 35 | 3.2 | 11.3 | 0.00 | 0.00 | 0.00 | 84 | 1018.9 |
| 20260906134558 | 20 | 27 | 3.2 | 14.5 | 0.00 | 0.00 | 0.00 | 84 | 1017.9 |
| 20260906134348 | 20 | 18 | 3.2 | 14.5 | 0.00 | 0.00 | 0.00 | 84 | 1018.9 |
| 20260906133844 | 20 | 44 | 3.2 | 14.5 | 0.00 | 0.00 | 0.00 | 84 | 1018.8 |
| 20260906133338 | 20 | 58 | 6.4 | 16.1 | 0.00 | 0.00 | 0.00 | 84 | 1018.8 |
| 20260906133059 | 20 | 55 | 4.8 | 16.1 | 0.00 | 0.00 | 0.00 | 84 | 1017.8 |
| 20260906132853 | 20 | 43 | 4.8 | 16.1 | 0.00 | 0.00 | 0.00 | 85 | 1018.8 |
| 20260906132347 | 20 | 40 | 4.8 | 16.1 | 0.00 | 0.00 | 0.00 | 86 | 1018.7 |
| 20260906131859 | 20 | 5 | 3.2 | 16.1 | 0.00 | 0.00 | 0.00 | 87 | 1018.7 |
| 20260906131548 | 19 | 54 | 3.2 | 17.7 | 0.00 | 0.00 | 0.00 | 87 | 1017.8 |
| 20260906131333 | 20 | 71 | 3.2 | 19.3 | 0.00 | 0.00 | 0.00 | 87 | 1018.6 |
| 20260906130848 | 20 | 102 | 6.4 | 19.3 | 0.00 | 0.00 | 0.00 | 87 | 1018.7 |
| 20260906130345 | 20 | 13 | 3.2 | 12.9 | 0.00 | 0.00 | 0.00 | 88 | 1018.7 |
| 20260906130053 | 19 | 46 | 4.8 | 12.9 | 0.00 | 0.00 | 0.00 | 89 | 1017.9 |
| 20260906125840 | 19 | 30 | 4.8 | 9.7 | 0.00 | 0.00 | 0.00 | 90 | 1018.7 |
| 20260906125402 | 19 | 1 | 1.6 | 12.9 | 0.00 | 0.00 | 0.00 | 91 | 1018.7 |
| 20260906124837 | 18 | 23 | 1.6 | 12.9 | 0.00 | 0.00 | 0.00 | 91 | 1018.6 |
| 20260906124547 | 18 | 94 | 0.0 | 6.4 | 0.00 | 0.00 | 0.00 | 92 | 1017.7 |
| 20260906124333 | 18 | 91 | 1.6 | 6.4 | 0.00 | 0.00 | 0.00 | 92 | 1018.6 |
| 20260906123849 | 18 | 97 | 1.6 | 6.4 | 0.00 | 0.00 | 0.00 | 92 | 1018.5 |
| 20260906123345 | 18 | 38 | 0.0 | 1.6 | 0.00 | 0.00 | 0.00 | 93 | 1018.6 |
| 20260906123034 | 18 | 37 | 0.0 | 1.6 | 0.00 | 0.00 | 0.00 | 93 | 1017.7 |
| 20260906122828 | 18 | 37 | 0.0 | 1.6 | 0.00 | 0.00 | 0.00 | 93 | 1018.6 |
| 20260906122410 | 18 | 37 | 0.0 | 0.0 | 0.00 | 0.00 | 0.00 | 94 | 1018.5 |
| 20260906121845 | 17 | 37 | 0.0 | 0.0 | 0.00 | 0.00 | 0.00 | 95 | 1018.4 |
| 20260906121532 | 17 | 37 | 0.0 | 0.0 | 0.00 | 0.00 | 0.00 | 95 | 1017.5 |
| 20260906121352 | 17 | 37 | 0.0 | 0.0 | 0.00 | 0.00 | 0.00 | 95 | 1018.4 |
| 20260906120847 | 16 | 37 | 0.0 | 0.0 | 0.00 | 0.00 | 0.00 | 95 | 1018.4 |
| 20260906120340 | 16 | 37 | 0.0 | 0.0 | 0.00 | 0.00 | 0.00 | 96 | 1018.4 |
| 20260906120039 | 16 | 37 | 0.0 | 0.0 | 0.00 | 0.00 | 0.00 | 96 | 1017.5 |
| 20260906115836 | 16 | 37 | 0.0 | 0.0 | 0.00 | 0.00 | 0.00 | 96 | 1018.3 |
| 20260906115350 | 15 | 37 | 0.0 | 0.0 | 0.00 | 0.00 | 0.00 | 96 | 1018.3 |
| 20260906114846 | 15 | 37 | 0.0 | 0.0 | 0.00 | 0.00 | 0.00 | 96 | 1018.2 |
| 20260906114515 | 14 | 37 | 0.0 | 0.0 | 0.00 | 0.00 | 0.00 | 96 | 1017.3 |
| 20260906114347 | 15 | 37 | 0.0 | 0.0 | 0.00 | 0.00 | 0.00 | 95 | 1018.2 |
| 20260906113843 | 14 | 37 | 0.0 | 0.0 | 0.00 | 0.00 | 0.00 | 95 | 1018.2 |
| 20260906113340 | 14 | 37 | 0.0 | 0.0 | 0.00 | 0.00 | 0.00 | 95 | 1018.1 |
| 20260906113023 | 13 | 37 | 0.0 | 0.0 | 0.00 | 0.00 | 0.00 | 95 | 1017.3 |
| 20260906112837 | 13 | 37 | 0.0 | 0.0 | 0.00 | 0.00 | 0.00 | 95 | 1018.1 |
| 20260906112335 | 13 | 37 | 0.0 | 0.0 | 0.00 | 0.00 | 0.00 | 95 | 1018.0 |
| 20260906111850 | 13 | 37 | 0.0 | 0.0 | 0.00 | 0.00 | 0.00 | 95 | 1018.0 |
| 20260906111530 | 13 | 37 | 0.0 | 0.0 | 0.00 | 0.00 | 0.00 | 95 | 1017.2 |
| 20260906111348 | 13 | 37 | 0.0 | 0.0 | 0.00 | 0.00 | 0.00 | 95 | 1018.0 |
| 20260906110844 | 13 | 37 | 0.0 | 0.0 | 0.00 | 0.00 | 0.00 | 94 | 1017.9 |
| 20260906110340 | 13 | 37 | 0.0 | 0.0 | 0.00 | 0.00 | 0.00 | 94 | 1017.7 |
| 20260906110033 | 13 | 37 | 0.0 | 0.0 | 0.00 | 0.00 | 0.00 | 95 | 1016.8 |
| 20260906105854 | 13 | 37 | 0.0 | 0.0 | 0.00 | 0.00 | 0.00 | 94 | 1017.7 |
| 20260906105343 | 13 | 37 | 0.0 | 0.0 | 0.00 | 0.00 | 0.00 | 95 | 1017.7 |
| 20260906104840 | 13 | 37 | 0.0 | 0.0 | 0.00 | 0.00 | 0.00 | 94 | 1017.6 |
| 20260906104539 | 13 | 37 | 0.0 | 0.0 | 0.00 | 0.00 | 0.00 | 94 | 1016.7 |
| 20260906104345 | 13 | 37 | 0.0 | 0.0 | 0.00 | 0.00 | 0.00 | 94 | 1017.6 |
| 20260906103851 | 13 | 37 | 0.0 | 0.0 | 0.00 | 0.00 | 0.00 | 94 | 1017.5 |
| 20260906103347 | 13 | 37 | 0.0 | 0.0 | 0.00 | 0.00 | 0.00 | 94 | 1017.5 |
| 20260906103013 | 13 | 37 | 0.0 | 0.0 | 0.00 | 0.00 | 0.00 | 94 | 1016.6 |
| 20260906102845 | 13 | 37 | 0.0 | 0.0 | 0.00 | 0.00 | 0.00 | 94 | 1017.4 |
| 20260906102342 | 14 | 37 | 0.0 | 0.0 | 0.00 | 0.00 | 0.00 | 94 | 1017.4 |
| 20260906101906 | 14 | 37 | 0.0 | 0.0 | 0.00 | 0.00 | 0.00 | 94 | 1017.3 |
| 20260906101527 | 13 | 37 | 0.0 | 0.0 | 0.00 | 0.00 | 0.00 | 94 | 1016.5 |
| 20260906101331 | 14 | 37 | 0.0 | 0.0 | 0.00 | 0.00 | 0.00 | 94 | 1017.3 |
| 20260906100841 | 14 | 37 | 0.0 | 0.0 | 0.00 | 0.00 | 0.00 | 94 | 1017.2 |
| 20260906100349 | 14 | 37 | 0.0 | 0.0 | 0.00 | 0.00 | 0.00 | 94 | 1017.2 |
| 20260906100057 | 14 | 37 | 0.0 | 0.0 | 0.00 | 0.00 | 0.00 | 94 | 1016.4 |
| 20260906095906 | 14 | 37 | 0.0 | 0.0 | 0.00 | 0.00 | 0.00 | 94 | 1017.2 |
| 20260906095342 | 14 | 37 | 0.0 | 0.0 | 0.00 | 0.00 | 0.00 | 94 | 1017.2 |
| 20260906094837 | 15 | 37 | 0.0 | 0.0 | 0.00 | 0.00 | 0.00 | 94 | 1017.2 |
| 20260906094523 | 14 | 37 | 0.0 | 0.0 | 0.00 | 0.00 | 0.00 | 94 | 1016.3 |
| 20260906094342 | 15 | 37 | 0.0 | 0.0 | 0.00 | 0.00 | 0.00 | 94 | 1017.2 |
| 20260906093837 | 15 | 37 | 0.0 | 0.0 | 0.00 | 0.00 | 0.00 | 94 | 1017.1 |
| 20260906093352 | 15 | 37 | 0.0 | 0.0 | 0.00 | 0.00 | 0.00 | 94 | 1017.0 |
| 20260906093029 | 15 | 37 | 0.0 | 0.0 | 0.00 | 0.00 | 0.00 | 94 | 1016.1 |
| 20260906092848 | 15 | 37 | 0.0 | 0.0 | 0.00 | 0.00 | 0.00 | 94 | 1017.0 |
| 20260906092340 | 15 | 37 | 0.0 | 0.0 | 0.00 | 0.00 | 0.00 | 94 | 1016.9 |
| 20260906091847 | 15 | 37 | 0.0 | 0.0 | 0.00 | 0.00 | 0.00 | 94 | 1016.9 |
| 20260906091505 | 15 | 37 | 0.0 | 0.0 | 0.00 | 0.00 | 0.00 | 94 | 1015.9 |
| 20260906091344 | 15 | 37 | 0.0 | 0.0 | 0.00 | 0.00 | 0.00 | 94 | 1016.8 |
| 20260906090840 | 15 | 37 | 0.0 | 0.0 | 0.00 | 0.00 | 0.00 | 94 | 1016.7 |
| 20260906090337 | 15 | 37 | 0.0 | 1.6 | 0.00 | 0.00 | 0.00 | 94 | 1016.8 |
| 20260906090013 | 15 | 37 | 0.0 | 1.6 | 0.00 | 0.00 | 0.00 | 94 | 1015.9 |
| 20260906085834 | 15 | 37 | 0.0 | 1.6 | 0.00 | 0.00 | 0.00 | 94 | 1016.7 |
| 20260906085349 | 15 | 37 | 0.0 | 1.6 | 0.00 | 0.00 | 0.00 | 94 | 1016.6 |
| 20260906084842 | 15 | 37 | 0.0 | 0.0 | 0.00 | 0.00 | 0.00 | 94 | 1016.6 |
| 20260906084517 | 15 | 37 | 0.0 | 1.6 | 0.00 | 0.00 | 0.00 | 94 | 1015.6 |
| 20260906084339 | 15 | 37 | 0.0 | 1.6 | 0.00 | 0.00 | 0.00 | 94 | 1016.5 |
| 20260906083837 | 15 | 37 | 0.0 | 1.6 | 0.00 | 0.00 | 0.00 | 94 | 1016.5 |
| 20260906083331 | 15 | 37 | 0.0 | 3.2 | 0.00 | 0.00 | 0.00 | 93 | 1016.4 |
| 20260906083030 | 15 | 37 | 1.6 | 3.2 | 0.00 | 0.00 | 0.00 | 93 | 1015.4 |
| 20260906082842 | 16 | 37 | 3.2 | 3.2 | 0.00 | 0.00 | 0.00 | 93 | 1016.2 |
| 20260906082347 | 16 | 37 | 1.6 | 3.2 | 0.00 | 0.00 | 0.00 | 93 | 1016.1 |
| 20260906081844 | 16 | 37 | 0.0 | 0.0 | 0.00 | 0.00 | 0.00 | 93 | 1016.2 |
| 20260906081549 | 15 | 37 | 0.0 | 0.0 | 0.00 | 0.00 | 0.00 | 93 | 1015.2 |
| 20260906081338 | 16 | 37 | 0.0 | 0.0 | 0.00 | 0.00 | 0.00 | 93 | 1016.1 |
| 20260906080833 | 16 | 37 | 0.0 | 0.0 | 0.00 | 0.00 | 0.00 | 93 | 1016.1 |
| 20260906080328 | 16 | 37 | 0.0 | 0.0 | 0.00 | 0.00 | 0.00 | 93 | 1016.2 |
| 20260906080055 | 16 | 37 | 0.0 | 0.0 | 0.00 | 0.00 | 0.00 | 93 | 1015.2 |
| 20260906075900 | 16 | 37 | 0.0 | 0.0 | 0.00 | 0.00 | 0.00 | 93 | 1016.0 |
| 20260906075335 | 16 | 37 | 0.0 | 0.0 | 0.00 | 0.00 | 0.00 | 93 | 1016.2 |
| 20260906074845 | 16 | 37 | 0.0 | 0.0 | 0.00 | 0.00 | 0.00 | 93 | 1016.1 |
| 20260906074547 | 16 | 37 | 0.0 | 0.0 | 0.00 | 0.00 | 0.00 | 93 | 1015.2 |
| 20260906074342 | 16 | 37 | 0.0 | 0.0 | 0.00 | 0.00 | 0.00 | 93 | 1016.1 |
| 20260906073838 | 16 | 37 | 0.0 | 0.0 | 0.00 | 0.00 | 0.00 | 93 | 1016.0 |
| 20260906073352 | 16 | 37 | 0.0 | 0.0 | 0.00 | 0.00 | 0.00 | 93 | 1016.1 |
| 20260906073054 | 16 | 37 | 0.0 | 0.0 | 0.00 | 0.00 | 0.00 | 93 | 1015.1 |
| 20260906072906 | 16 | 37 | 0.0 | 0.0 | 0.00 | 0.00 | 0.00 | 93 | 1016.0 |
| 20260906072330 | 16 | 37 | 0.0 | 0.0 | 0.00 | 0.00 | 0.00 | 93 | 1016.0 |
| 20260906071843 | 16 | 37 | 0.0 | 0.0 | 0.00 | 0.00 | 0.00 | 93 | 1016.0 |
| 20260906071505 | 16 | 37 | 0.0 | 0.0 | 0.00 | 0.00 | 0.00 | 93 | 1015.2 |
| 20260906071337 | 16 | 37 | 0.0 | 0.0 | 0.00 | 0.00 | 0.00 | 93 | 1016.1 |
| 20260906070833 | 16 | 37 | 0.0 | 0.0 | 0.00 | 0.00 | 0.00 | 93 | 1016.0 |
| 20260906070345 | 16 | 37 | 0.0 | 0.0 | 0.00 | 0.00 | 0.00 | 93 | 1016.0 |
| 20260906070009 | 16 | 37 | 0.0 | 0.0 | 0.00 | 0.00 | 0.00 | 93 | 1015.2 |
| 20260906065840 | 16 | 37 | 0.0 | 0.0 | 0.00 | 0.00 | 0.00 | 93 | 1016.2 |
| 20260906065347 | 16 | 37 | 0.0 | 1.6 | 0.00 | 0.00 | 0.00 | 92 | 1016.2 |
| 20260906064843 | 16 | 37 | 0.0 | 4.8 | 0.00 | 0.00 | 0.00 | 92 | 1016.3 |
| 20260906064537 | 16 | 37 | 0.0 | 4.8 | 0.00 | 0.00 | 0.00 | 92 | 1015.4 |
| 20260906064338 | 16 | 37 | 1.6 | 4.8 | 0.00 | 0.00 | 0.00 | 92 | 1016.3 |
| 20260906063902 | 16 | 37 | 0.0 | 0.0 | 0.00 | 0.00 | 0.00 | 92 | 1016.2 |
| 20260906063337 | 16 | 37 | 0.0 | 0.0 | 0.00 | 0.00 | 0.00 | 92 | 1016.1 |
| 20260906063026 | 16 | 37 | 0.0 | 0.0 | 0.00 | 0.00 | 0.00 | 92 | 1015.2 |
| 20260906062853 | 16 | 37 | 0.0 | 0.0 | 0.00 | 0.00 | 0.00 | 92 | 1016.1 |
| 20260906062327 | 16 | 37 | 0.0 | 0.0 | 0.00 | 0.00 | 0.00 | 92 | 1016.2 |
| 20260906061839 | 16 | 37 | 0.0 | 0.0 | 0.00 | 0.00 | 0.00 | 92 | 1016.2 |
| 20260906061502 | 16 | 37 | 0.0 | 1.6 | 0.00 | 0.00 | 0.00 | 92 | 1015.3 |
| 20260906061356 | 16 | 37 | 0.0 | 1.6 | 0.00 | 0.00 | 0.00 | 92 | 1016.2 |
| 20260906060911 | 16 | 37 | 0.0 | 1.6 | 0.00 | 0.00 | 0.00 | 92 | 1016.2 |
| 20260906060345 | 16 | 37 | 0.0 | 1.6 | 0.00 | 0.00 | 0.00 | 92 | 1016.1 |
| 20260906060013 | 16 | 37 | 0.0 | 1.6 | 0.00 | 0.00 | 0.00 | 92 | 1015.1 |
| 20260906055849 | 16 | 37 | 0.0 | 0.0 | 0.00 | 0.00 | 0.00 | 92 | 1016.1 |
| 20260906055342 | 16 | 37 | 0.0 | 0.0 | 0.00 | 0.00 | 0.00 | 92 | 1016.2 |
| 20260906054854 | 17 | 37 | 0.0 | 0.0 | 0.00 | 0.00 | 0.00 | 92 | 1016.3 |
| 20260906054558 | 16 | 37 | 0.0 | 0.0 | 0.00 | 0.00 | 0.00 | 92 | 1015.3 |
| 20260906054330 | 16 | 37 | 0.0 | 0.0 | 0.00 | 0.00 | 0.00 | 92 | 1016.2 |
| 20260906053839 | 16 | 37 | 0.0 | 0.0 | 0.00 | 0.00 | 0.00 | 92 | 1016.3 |
| 20260906053334 | 16 | 37 | 0.0 | 1.6 | 0.00 | 0.00 | 0.00 | 92 | 1016.1 |
| 20260906053108 | 16 | 37 | 0.0 | 1.6 | 0.00 | 0.00 | 0.00 | 92 | 1015.2 |
| 20260906053008 | 16 | 37 | 0.0 | 1.6 | 0.00 | 0.00 | 0.00 | 92 | 1015.2 |
| 20260906052849 | 16 | 37 | 0.0 | 1.6 | 0.00 | 0.00 | 0.00 | 92 | 1016.2 |
| 20260906052344 | 17 | 37 | 0.0 | 0.0 | 0.00 | 0.00 | 0.00 | 92 | 1016.1 |
| 20260906051829 | 17 | 37 | 0.0 | 1.6 | 0.00 | 0.00 | 0.00 | 92 | 1016.2 |
| 20260906051537 | 16 | 37 | 0.0 | 1.6 | 0.00 | 0.00 | 0.00 | 92 | 1015.2 |
| 20260906051354 | 17 | 37 | 0.0 | 1.6 | 0.00 | 0.00 | 0.00 | 92 | 1016.2 |
| 20260906050829 | 17 | 37 | 0.0 | 0.0 | 0.00 | 0.00 | 0.00 | 92 | 1016.1 |
| 20260906050346 | 17 | 37 | 0.0 | 0.0 | 0.00 | 0.00 | 0.00 | 92 | 1016.1 |
| 20260906050011 | 16 | 37 | 0.0 | 0.0 | 0.00 | 0.00 | 0.00 | 92 | 1015.1 |
| 20260906045831 | 17 | 37 | 0.0 | 0.0 | 0.00 | 0.00 | 0.00 | 92 | 1016.0 |
| 20260906045346 | 17 | 37 | 0.0 | 0.0 | 0.00 | 0.00 | 0.00 | 92 | 1016.0 |
| 20260906044837 | 17 | 37 | 0.0 | 0.0 | 0.00 | 0.00 | 0.00 | 92 | 1015.9 |
| 20260906044515 | 16 | 37 | 0.0 | 0.0 | 0.00 | 0.00 | 0.00 | 92 | 1015.1 |
| 20260906044352 | 17 | 37 | 0.0 | 0.0 | 0.00 | 0.00 | 0.00 | 92 | 1016.0 |
| 20260906043910 | 17 | 37 | 0.0 | 0.0 | 0.00 | 0.00 | 0.00 | 91 | 1016.0 |
| 20260906043343 | 17 | 37 | 0.0 | 0.0 | 0.00 | 0.00 | 0.00 | 91 | 1016.0 |
| 20260906043001 | 16 | 37 | 0.0 | 0.0 | 0.00 | 0.00 | 0.00 | 91 | 1015.1 |
| 20260906042841 | 17 | 37 | 0.0 | 0.0 | 0.00 | 0.00 | 0.00 | 91 | 1016.0 |
| 20260906042337 | 17 | 37 | 0.0 | 0.0 | 0.00 | 0.00 | 0.00 | 91 | 1015.9 |
| 20260906041832 | 17 | 37 | 0.0 | 0.0 | 0.00 | 0.00 | 0.00 | 91 | 1015.9 |
| 20260906041511 | 17 | 37 | 0.0 | 0.0 | 0.00 | 0.00 | 0.00 | 91 | 1015.0 |
| 20260906041347 | 17 | 37 | 0.0 | 0.0 | 0.00 | 0.00 | 0.00 | 92 | 1015.9 |
| 20260906040843 | 17 | 37 | 0.0 | 0.0 | 0.00 | 0.00 | 0.00 | 91 | 1015.9 |
| 20260906040340 | 17 | 37 | 0.0 | 0.0 | 0.00 | 0.00 | 0.00 | 91 | 1015.9 |
| 20260906040027 | 16 | 37 | 0.0 | 0.0 | 0.00 | 0.00 | 0.00 | 91 | 1015.0 |
| 20260906035834 | 17 | 37 | 0.0 | 0.0 | 0.00 | 0.00 | 0.00 | 91 | 1015.9 |
| 20260906035349 | 17 | 37 | 0.0 | 0.0 | 0.00 | 0.00 | 0.00 | 91 | 1015.8 |
| 20260906034847 | 17 | 37 | 0.0 | 0.0 | 0.00 | 0.00 | 0.00 | 91 | 1015.9 |
| 20260906034526 | 17 | 37 | 0.0 | 0.0 | 0.00 | 0.00 | 0.00 | 91 | 1015.0 |
| 20260906034344 | 17 | 37 | 0.0 | 0.0 | 0.00 | 0.00 | 0.00 | 91 | 1015.9 |
| 20260906033842 | 17 | 37 | 0.0 | 0.0 | 0.00 | 0.00 | 0.00 | 91 | 1015.8 |
| 20260906033405 | 17 | 37 | 0.0 | 0.0 | 0.00 | 0.00 | 0.00 | 91 | 1015.8 |
| 20260906033025 | 17 | 37 | 0.0 | 1.6 | 0.00 | 0.00 | 0.00 | 91 | 1014.9 |
| 20260906032840 | 17 | 37 | 0.0 | 1.6 | 0.00 | 0.00 | 0.00 | 91 | 1015.8 |
| 20260906032337 | 17 | 37 | 0.0 | 1.6 | 0.00 | 0.00 | 0.00 | 91 | 1015.7 |
| 20260906031829 | 17 | 37 | 0.0 | 0.0 | 0.00 | 0.00 | 0.00 | 91 | 1015.6 |
| 20260906031526 | 16 | 37 | 0.0 | 0.0 | 0.00 | 0.00 | 0.00 | 91 | 1014.7 |
| 20260906031345 | 17 | 37 | 0.0 | 0.0 | 0.00 | 0.00 | 0.00 | 90 | 1015.6 |
| 20260906030847 | 17 | 37 | 0.0 | 0.0 | 0.00 | 0.00 | 0.00 | 90 | 1015.6 |
| 20260906030342 | 17 | 37 | 0.0 | 1.6 | 0.00 | 0.00 | 0.00 | 90 | 1015.5 |
| 20260906030053 | 16 | 37 | 0.0 | 1.6 | 0.00 | 0.00 | 0.00 | 90 | 1014.7 |
| 20260906025840 | 17 | 37 | 0.0 | 0.0 | 0.00 | 0.00 | 0.00 | 90 | 1015.5 |
| 20260906025335 | 17 | 37 | 0.0 | 0.0 | 0.00 | 0.00 | 0.00 | 90 | 1015.5 |
| 20260906024829 | 17 | 37 | 0.0 | 0.0 | 0.00 | 0.00 | 0.00 | 90 | 1015.6 |
| 20260906024546 | 17 | 37 | 0.0 | 0.0 | 0.00 | 0.00 | 0.00 | 90 | 1014.6 |
| 20260906024355 | 17 | 37 | 0.0 | 0.0 | 0.00 | 0.00 | 0.00 | 90 | 1015.5 |
| 20260906023851 | 17 | 37 | 0.0 | 0.0 | 0.00 | 0.00 | 0.00 | 90 | 1015.5 |
| 20260906023327 | 17 | 37 | 0.0 | 0.0 | 0.00 | 0.00 | 0.00 | 90 | 1015.5 |
| 20260906023051 | 16 | 37 | 0.0 | 0.0 | 0.00 | 0.00 | 0.00 | 90 | 1014.6 |
| 20260906022843 | 17 | 37 | 0.0 | 0.0 | 0.00 | 0.00 | 0.00 | 90 | 1015.5 |
| 20260906022346 | 17 | 37 | 0.0 | 0.0 | 0.00 | 0.00 | 0.00 | 90 | 1015.6 |
| 20260906021842 | 17 | 37 | 0.0 | 0.0 | 0.00 | 0.00 | 0.00 | 89 | 1015.5 |
| 20260906021522 | 16 | 37 | 0.0 | 0.0 | 0.00 | 0.00 | 0.00 | 89 | 1014.7 |
| 20260906021336 | 17 | 37 | 0.0 | 0.0 | 0.00 | 0.00 | 0.00 | 89 | 1015.6 |
| 20260906020847 | 17 | 37 | 0.0 | 0.0 | 0.00 | 0.00 | 0.00 | 89 | 1015.5 |
| 20260906020344 | 17 | 37 | 0.0 | 0.0 | 0.00 | 0.00 | 0.00 | 89 | 1015.4 |
| 20260906020031 | 16 | 37 | 0.0 | 0.0 | 0.00 | 0.00 | 0.00 | 88 | 1014.6 |
| 20260906015839 | 17 | 37 | 0.0 | 0.0 | 0.00 | 0.00 | 0.00 | 88 | 1015.5 |
| 20260906015404 | 17 | 37 | 0.0 | 0.0 | 0.00 | 0.00 | 0.00 | 88 | 1015.4 |
| 20260906014829 | 17 | 37 | 0.0 | 0.0 | 0.00 | 0.00 | 0.00 | 88 | 1015.4 |
| 20260906014545 | 17 | 37 | 0.0 | 0.0 | 0.00 | 0.00 | 0.00 | 88 | 1014.5 |
| 20260906014345 | 17 | 37 | 0.0 | 0.0 | 0.00 | 0.00 | 0.00 | 88 | 1015.4 |
| 20260906013846 | 17 | 37 | 0.0 | 0.0 | 0.00 | 0.00 | 0.00 | 87 | 1015.4 |
| 20260906013340 | 17 | 37 | 0.0 | 0.0 | 0.00 | 0.00 | 0.00 | 87 | 1015.4 |
| 20260906013056 | 17 | 37 | 0.0 | 1.6 | 0.00 | 0.00 | 0.00 | 86 | 1014.4 |
| 20260906012846 | 17 | 37 | 0.0 | 1.6 | 0.00 | 0.00 | 0.00 | 86 | 1015.3 |
| 20260906012350 | 17 | 37 | 0.0 | 1.6 | 0.00 | 0.00 | 0.00 | 86 | 1015.3 |
| 20260906011913 | 17 | 37 | 0.0 | 0.0 | 0.00 | 0.00 | 0.00 | 86 | 1015.2 |
| 20260906011547 | 17 | 37 | 0.0 | 0.0 | 0.00 | 0.00 | 0.00 | 85 | 1014.3 |
| 20260906011327 | 17 | 37 | 0.0 | 0.0 | 0.00 | 0.00 | 0.00 | 85 | 1015.2 |
| 20260906010842 | 18 | 37 | 0.0 | 0.0 | 0.00 | 0.00 | 0.00 | 85 | 1015.1 |
| 20260906010337 | 18 | 37 | 0.0 | 0.0 | 0.00 | 0.00 | 0.00 | 84 | 1015.0 |
| 20260906010042 | 17 | 37 | 0.0 | 0.0 | 0.00 | 0.00 | 0.00 | 84 | 1014.0 |
| 20260906005847 | 18 | 37 | 0.0 | 0.0 | 0.00 | 0.00 | 0.00 | 84 | 1014.9 |
| 20260906005403 | 18 | 37 | 0.0 | 0.0 | 0.00 | 0.00 | 0.00 | 84 | 1015.0 |
| 20260906004827 | 18 | 37 | 0.0 | 0.0 | 0.00 | 0.00 | 0.00 | 83 | 1015.1 |
| 20260906004523 | 18 | 37 | 0.0 | 0.0 | 0.00 | 0.00 | 0.00 | 82 | 1014.0 |
| 20260906004341 | 18 | 37 | 0.0 | 0.0 | 0.00 | 0.00 | 0.00 | 82 | 1015.0 |
| 20260906003837 | 18 | 37 | 0.0 | 0.0 | 0.00 | 0.00 | 0.00 | 82 | 1015.0 |
| 20260906003351 | 19 | 37 | 0.0 | 0.0 | 0.00 | 0.00 | 0.00 | 81 | 1015.0 |
| 20260906003027 | 19 | 37 | 0.0 | 0.0 | 0.00 | 0.00 | 0.00 | 80 | 1014.0 |
| 20260906002842 | 19 | 37 | 0.0 | 0.0 | 0.00 | 0.00 | 0.00 | 80 | 1014.9 |
| 20260906002328 | 20 | 37 | 0.0 | 0.0 | 0.00 | 0.00 | 0.00 | 80 | 1015.0 |
| 20260906001909 | 20 | 37 | 0.0 | 0.0 | 0.00 | 0.00 | 0.00 | 79 | 1015.0 |
| 20260906001550 | 19 | 37 | 0.0 | 0.0 | 0.00 | 0.00 | 0.00 | 77 | 1013.9 |
| 20260906001345 | 20 | 37 | 0.0 | 0.0 | 0.00 | 0.00 | 0.00 | 77 | 1015.0 |
| 20260906000841 | 20 | 37 | 0.0 | 0.0 | 0.00 | 0.00 | 0.00 | 76 | 1014.9 |
| 20260906000345 | 20 | 37 | 0.0 | 0.0 | 0.00 | 0.00 | 0.00 | 76 | 1014.8 |
| 20260906000053 | 20 | 37 | 0.0 | 0.0 | 0.00 | 0.00 | 0.00 | 75 | 1013.8 |
| 20260905235831 | 21 | 37 | 0.0 | 0.0 | 0.00 | 0.00 | 0.00 | 75 | 1014.7 |
| 20260905235347 | 21 | 37 | 0.0 | 0.0 | 0.00 | 0.00 | 0.00 | 75 | 1014.7 |
| 20260905234841 | 21 | 37 | 0.0 | 0.0 | 0.00 | 0.00 | 0.00 | 73 | 1014.8 |
| 20260905234550 | 21 | 37 | 0.0 | 0.0 | 0.00 | 0.00 | 0.00 | 73 | 1013.9 |
| 20260905234336 | 21 | 37 | 0.0 | 0.0 | 0.00 | 0.00 | 0.00 | 73 | 1014.9 |
| 20260905233829 | 21 | 37 | 0.0 | 0.0 | 0.00 | 0.00 | 0.00 | 72 | 1014.9 |
| 20260905233351 | 21 | 37 | 0.0 | 0.0 | 0.00 | 0.00 | 0.00 | 72 | 1014.9 |
| 20260905233000 | 21 | 37 | 0.0 | 1.6 | 0.00 | 0.00 | 0.00 | 71 | 1014.0 |
| 20260905232905 | 22 | 37 | 0.0 | 1.6 | 0.00 | 0.00 | 0.00 | 71 | 1015.0 |
| 20260905232409 | 22 | 37 | 0.0 | 3.2 | 0.00 | 0.00 | 0.00 | 69 | 1014.9 |
| 20260905231842 | 22 | 37 | 0.0 | 3.2 | 0.00 | 0.00 | 0.00 | 69 | 1014.9 |
| 20260905231556 | 22 | 37 | 0.0 | 3.2 | 0.00 | 0.00 | 0.00 | 67 | 1013.9 |
| 20260905231407 | 22 | 39 | 0.0 | 3.2 | 0.00 | 0.00 | 0.00 | 67 | 1014.9 |
| 20260905230840 | 22 | 40 | 0.0 | 4.8 | 0.00 | 0.00 | 0.00 | 66 | 1014.9 |
| 20260905230333 | 22 | 33 | 1.6 | 4.8 | 0.00 | 0.00 | 0.00 | 65 | 1014.9 |
| 20260905230043 | 22 | 23 | 0.0 | 4.8 | 0.00 | 0.00 | 0.00 | 65 | 1013.9 |
| 20260905225846 | 22 | 23 | 0.0 | 4.8 | 0.00 | 0.00 | 0.00 | 64 | 1014.9 |
| 20260905225343 | 23 | 6 | 1.6 | 6.4 | 0.00 | 0.00 | 0.00 | 63 | 1014.9 |
| 20260905224846 | 23 | 18 | 1.6 | 6.4 | 0.00 | 0.00 | 0.00 | 63 | 1014.8 |
| 20260905224513 | 23 | 54 | 1.6 | 9.7 | 0.00 | 0.00 | 0.00 | 62 | 1013.9 |
| 20260905224343 | 23 | 44 | 1.6 | 9.7 | 0.00 | 0.00 | 0.00 | 62 | 1014.8 |
| 20260905223848 | 23 | 34 | 3.2 | 9.7 | 0.00 | 0.00 | 0.00 | 62 | 1014.8 |
| 20260905223343 | 23 | 66 | 4.8 | 9.7 | 0.00 | 0.00 | 0.00 | 62 | 1014.8 |
| 20260905223041 | 23 | 74 | 1.6 | 6.4 | 0.00 | 0.00 | 0.00 | 61 | 1013.8 |
| 20260905222859 | 23 | 35 | 3.2 | 8.0 | 0.00 | 0.00 | 0.00 | 61 | 1014.8 |
| 20260905222403 | 24 | 55 | 1.6 | 9.7 | 0.00 | 0.00 | 0.00 | 60 | 1014.9 |
| 20260905221838 | 24 | 58 | 1.6 | 8.0 | 0.00 | 0.00 | 0.00 | 61 | 1014.9 |
| 20260905221511 | 23 | 29 | 1.6 | 8.0 | 0.00 | 0.00 | 0.00 | 61 | 1013.9 |
| 20260905221349 | 24 | 29 | 3.2 | 8.0 | 0.00 | 0.00 | 0.00 | 60 | 1014.9 |
| 20260905220903 | 24 | 13 | 3.2 | 9.7 | 0.00 | 0.00 | 0.00 | 59 | 1014.8 |
| 20260905220337 | 24 | 358 | 3.2 | 9.7 | 0.00 | 0.00 | 0.00 | 59 | 1014.8 |
| 20260905220051 | 23 | 42 | 3.2 | 8.0 | 0.00 | 0.00 | 0.00 | 59 | 1013.8 |
| 20260905215852 | 24 | 35 | 3.2 | 8.0 | 0.00 | 0.00 | 0.00 | 59 | 1014.8 |